Weather History for Wahoo, NE

Change the Weather History Date:

Thursday, July 17, 2014

  Actual Average Record
Temperature  
Mean Temperature 66 °F -  
Max Temperature 79 °F 90 °F 103 °F (1974)
Min Temperature 52 °F 67 °F 52 °F (2014)
Growing Degree Days 16 (Base 50)    
Moisture  
Dew Point 52 °F    
Average Humidity 64    
Maximum Humidity 90    
Minimum Humidity 31    
Precipitation  
Precipitation 0.00 in - - ()
Sea Level Pressure  
Sea Level Pressure 30.06 in    
Wind  
Wind Speed 2 mph (SSE)    
Max Wind Speed 10 mph    
Max Gust Speed -    
Visibility 10 miles    
Events      
Averages and records for this station are not official NWS values.
T = Trace of Precipitation, MM = Missing Value Source: NWS Daily Summary

Daily Weather History Graph

Daily Weather History Graph

Search for Another Location

Airport:

Trip Planner

Search our weather history database for the weather conditions in past years. The results will help you decide how hot, cold, wet, or windy it might be!

Date:

Astronomy

Jul. 17, 2014 Rise Set
Actual Time 6:08 AM CDT 8:56 PM CDT
Civil Twilight 5:35 AM CDT 9:28 PM CDT
Nautical Twilight 4:54 AM CDT 10:09 PM CDT
Astronomical Twilight 4:07 AM CDT 10:56 PM CDT
Moon No Moon Rise 12:25 PM CDT (7/17)
Length of Visible Light 15h 53m
Length of Day
14h 48m
Waning Gibbous, 65% of the Moon is Illuminated
Jul 17
Waning Gibbous
Jul 18
Last Quarter
Jul 26
New
Aug 3
First Quarter
Aug 10
Full

Hourly Weather History & Observations

Time (CDT) Temp. Dew Point Humidity Pressure Visibility Wind Dir Wind Speed Gust Speed Precip Events Conditions
12:15 AM 57.2 °F 52.0 °F 83% 30.06 in 10.0 mi Calm Calm - N/A   Clear
12:35 AM 57.2 °F 52.0 °F 83% 30.07 in 10.0 mi SSW 3.5 mph - N/A   Clear
12:55 AM 56.5 °F 51.8 °F 84% 30.07 in 10.0 mi Calm Calm - N/A   Clear
1:15 AM 56.7 °F 52.0 °F 84% 30.07 in 10.0 mi Calm Calm - N/A   Clear
1:35 AM 55.4 °F 51.1 °F 85% 30.07 in 10.0 mi Calm Calm - N/A   Clear
1:55 AM 54.5 °F 50.7 °F 87% 30.07 in 10.0 mi Calm Calm - N/A   Clear
2:15 AM 55.6 °F 51.8 °F 87% 30.07 in 10.0 mi Calm Calm - N/A   Clear
2:35 AM 56.5 °F 52.7 °F 87% 30.07 in 10.0 mi SW 3.5 mph - N/A   Clear
2:55 AM 55.9 °F 50.9 °F 83% 30.07 in 10.0 mi Calm Calm - N/A   Clear
3:15 AM 55.4 °F 50.9 °F 85% 30.07 in 10.0 mi SW 3.5 mph - N/A   Clear
3:35 AM 55.6 °F 51.3 °F 85% 30.08 in 10.0 mi SW 3.5 mph - N/A   Clear
3:55 AM 54.9 °F 50.0 °F 84% 30.08 in 10.0 mi Calm Calm - N/A   Clear
4:15 AM 55.0 °F 50.9 °F 86% 30.08 in 10.0 mi Calm Calm - N/A   Mostly Cloudy
4:35 AM 55.0 °F 51.6 °F 88% 30.07 in 10.0 mi Calm Calm - N/A   Overcast
4:55 AM 55.4 °F 51.4 °F 87% 30.07 in 10.0 mi Calm Calm - N/A   Mostly Cloudy
5:15 AM 54.0 °F 50.5 °F 88% 30.07 in 10.0 mi Calm Calm - N/A   Mostly Cloudy
5:35 AM 53.6 °F 50.0 °F 88% 30.07 in 10.0 mi Calm Calm - N/A   Scattered Clouds
5:55 AM 52.3 °F 49.1 °F 89% 30.07 in 10.0 mi Calm Calm - N/A   Clear
6:15 AM 52.5 °F 49.5 °F 89% 30.07 in 10.0 mi Calm Calm - N/A   Clear
6:35 AM 52.0 °F 48.9 °F 89% 30.07 in 10.0 mi Calm Calm - N/A   Clear
6:55 AM 53.1 °F 50.2 °F 90% 30.07 in 10.0 mi Calm Calm - N/A   Clear
7:15 AM 55.0 °F 51.4 °F 88% 30.07 in 7.0 mi Calm Calm - N/A   Clear
7:35 AM 58.3 °F 54.1 °F 86% 30.08 in 7.0 mi Calm Calm - N/A   Clear
7:55 AM 59.7 °F 55.4 °F 86% 30.08 in 7.0 mi Calm Calm - N/A   Scattered Clouds
8:15 AM 60.8 °F 55.9 °F 84% 30.09 in 10.0 mi Calm Calm - N/A   Overcast
8:35 AM 61.5 °F 56.5 °F 83% 30.09 in 10.0 mi Calm Calm - N/A   Overcast
8:55 AM 62.8 °F 57.4 °F 82% 30.09 in 10.0 mi Calm Calm - N/A   Mostly Cloudy
9:15 AM 65.3 °F 57.6 °F 76% 30.10 in 10.0 mi Calm Calm - N/A   Overcast
9:35 AM 67.1 °F 57.6 °F 71% 30.10 in 10.0 mi Calm Calm - N/A   Overcast
9:55 AM 68.7 °F 57.6 °F 67% 30.09 in 10.0 mi South 5.8 mph - N/A   Scattered Clouds
10:15 AM 70.0 °F 56.7 °F 63% 30.09 in 10.0 mi South 3.5 mph - N/A   Scattered Clouds
10:35 AM 72.9 °F 55.9 °F 55% 30.09 in 10.0 mi SW 5.8 mph - N/A   Scattered Clouds
10:55 AM 74.1 °F 55.2 °F 52% 30.09 in 10.0 mi SSW 4.6 mph - N/A   Clear
11:15 AM 75.2 °F 52.9 °F 46% 30.09 in 10.0 mi SSE 10.4 mph - N/A   Clear
11:35 AM 76.1 °F 51.4 °F 42% 30.09 in 10.0 mi South 6.9 mph - N/A   Clear
11:55 AM 75.7 °F 48.0 °F 37% 30.09 in 10.0 mi SE 6.9 mph - N/A   Mostly Cloudy
12:15 PM 77.0 °F 47.7 °F 35% 30.09 in 10.0 mi SSE 10.4 mph - N/A   Overcast
12:35 PM 75.7 °F 46.2 °F 35% 30.08 in 10.0 mi South 3.5 mph - N/A   Mostly Cloudy
12:55 PM 76.6 °F 47.3 °F 35% 30.08 in 10.0 mi SSE 10.4 mph - N/A   Mostly Cloudy
1:15 PM 77.4 °F 45.5 °F 32% 30.08 in 10.0 mi South 3.5 mph - N/A   Scattered Clouds
1:35 PM 77.7 °F 46.8 °F 33% 30.08 in 10.0 mi ESE 5.8 mph - N/A   Scattered Clouds
1:55 PM 76.8 °F 48.6 °F 37% 30.07 in 10.0 mi SE 5.8 mph - N/A   Mostly Cloudy
2:15 PM 77.0 °F 47.7 °F 35% 30.07 in 10.0 mi SE 5.8 mph - N/A   Overcast
2:35 PM 75.9 °F 48.4 °F 38% 30.06 in 10.0 mi East 4.6 mph - N/A   Mostly Cloudy
2:55 PM 78.8 °F 47.3 °F 33% 30.06 in 10.0 mi South 6.9 mph - N/A   Mostly Cloudy
3:15 PM 79.3 °F 46.9 °F 32% 30.06 in 10.0 mi East 3.5 mph - N/A   Scattered Clouds
3:35 PM 78.8 °F 46.4 °F 32% 30.06 in 10.0 mi SE 4.6 mph - N/A   Mostly Cloudy
3:55 PM 79.9 °F 46.9 °F 31% 30.05 in 10.0 mi SE 3.5 mph - N/A   Mostly Cloudy
4:15 PM 78.3 °F 48.4 °F 35% 30.05 in 10.0 mi SSE 5.8 mph - N/A   Mostly Cloudy
4:35 PM 79.2 °F 48.0 °F 33% 30.04 in 10.0 mi South 5.8 mph - N/A   Scattered Clouds
4:55 PM 79.0 °F 46.9 °F 32% 30.04 in 10.0 mi SE 8.1 mph - N/A   Scattered Clouds
5:15 PM 78.8 °F 46.2 °F 32% 30.04 in 10.0 mi SSE 4.6 mph - N/A   Clear
5:35 PM 78.4 °F 46.6 °F 32% 30.04 in 10.0 mi ESE 3.5 mph - N/A   Clear
5:55 PM 78.6 °F 48.7 °F 35% 30.04 in 10.0 mi SE 4.6 mph - N/A   Clear
6:15 PM 78.1 °F 48.4 °F 35% 30.03 in 10.0 mi SE 3.5 mph - N/A   Clear
6:35 PM 77.5 °F 49.8 °F 38% 30.02 in 10.0 mi SE 3.5 mph - N/A   Clear
6:55 PM 76.6 °F 52.2 °F 42% 30.03 in 10.0 mi ESE 5.8 mph - N/A   Clear
7:15 PM 75.4 °F 53.2 °F 46% 30.02 in 10.0 mi SE 5.8 mph - N/A   Clear
7:35 PM 73.6 °F 55.4 °F 53% 30.03 in 10.0 mi ESE 4.6 mph - N/A   Clear
7:55 PM 72.3 °F 55.8 °F 56% 30.03 in 10.0 mi ESE 4.6 mph - N/A   Clear
8:15 PM 70.2 °F 57.2 °F 63% 30.03 in 10.0 mi SE 5.8 mph - N/A   Clear
8:35 PM 68.9 °F 57.2 °F 66% 30.03 in 10.0 mi SSE 6.9 mph - N/A   Clear
8:55 PM 68.9 °F 57.2 °F 66% 30.02 in 10.0 mi SSE 6.9 mph - N/A   Clear
9:15 PM 67.6 °F 57.9 °F 71% 30.03 in 10.0 mi SSE 6.9 mph - N/A   Clear
9:35 PM 64.6 °F 57.9 °F 79% 30.04 in 10.0 mi SE 4.6 mph - N/A   Clear
9:55 PM 64.6 °F 58.1 °F 79% 30.04 in 10.0 mi SSE 5.8 mph - N/A   Clear
10:15 PM 63.5 °F 57.7 °F 81% 30.04 in 10.0 mi Calm Calm - N/A   Clear
10:35 PM 63.0 °F 57.6 °F 82% 30.05 in 10.0 mi SSE 5.8 mph - N/A   Clear
10:55 PM 62.6 °F 57.6 °F 84% 30.05 in 10.0 mi SSE 4.6 mph - N/A   Clear
11:15 PM 62.1 °F 57.6 °F 85% 30.05 in 10.0 mi SSE 5.8 mph - N/A   Clear
11:35 PM 62.1 °F 57.9 °F 86% 30.05 in 10.0 mi SSE 4.6 mph - N/A   Clear
11:55 PM 61.7 °F 57.6 °F 86% 30.06 in 10.0 mi ESE 4.6 mph - N/A   Clear